Location: Gälforsberget
(66.6500°N, 22.4167°E)
Time: 06:19:50
(UTC+00:00)

NOSS 0 Rocket - Pass Details

Date: 11 April 2026
Orbit: 935 x 953 km, 70.0° (Epoch: 12 May)

Event Time Altitude Azimuth Distance (km) Brightness Sun altitude
Rises 23:08:15 0° 256° (WSW) 3,632 6.8 -14.4°
Reaches altitude 10° 23:10:48 10° 259° (W) 2,686 6.1 -14.4°
Maximum altitude 23:17:03 71° 344° (NNW) 1,009 4.2 -14.3°
Drops below altitude 10° 23:23:17 10° 69° (ENE) 2,681 6.8 -14.2°
Sets 23:25:50 0° 72° (ENE) 3,624 7.5 -14.1°
